Pagrindinis puslapis
METAR-TAF:

METAR-TAF

Oro uostai :

Altus, Oklahoma, Jungtinės Amerikos Valstijos

platuma: 34-41-55N, ilguma: 099-20-17W, Aukštis: 437 m

Dabartinis oras

Ataskaita buvo paskelbta 25 minutes, ne 08:55 UTC
Vėjas 3 kt iš Rytų
Temperatūra 15°C
Drėgmė 44%
Slėgis 1022 hPa
Matomumas: 16.1 km
Giedras dangus

METAR: KAXS 020855Z AUTO 09003KT 10SM CLR 15/03 A3017 RMK AO2 T01500027

Laikas: 04:20 (09:20 UTC)


TAF: trūkstamas

Orai ataskaitas ir orų prognozės (METAR, TAF).

turimą stotys yra geltonos ir raudonos taškus žemėlapyje.

Perkelti pele per norėdami pamatyti stoties vardą.

Tada spustelėkite, norėdami matyti oro stebėjimo ir prognozės.

Norėdami pakeisti žemėlapį: spustelėkite ant žalios mygtukų su juodo kryžiaus žemyn,; žalią mygtuką su brūkšneliu, jei norite nutolinti; arba žalių rodyklių gretimoms žemėlapius.


METAR-TAF: